Voltar ao catálogo

STARLINK-3999

AtivoComunicaçõesVLEO
NORAD 52704·PAYLOAD·🇺🇸 United States

Lançado May 18, 2022 de Cape Canaveral Space Force Station

Loading…

Próximas Passagens (próximas 24 horas)

TLE

AtualizadoSource: CelesTrak SupGP

Época: Sep 15, 2026, 02:31 UTC

1 52704C 22053BA  26258.10534722  .00029459  00000+0  84295-3 0  2584
2 52704  53.1585 352.1467 0001085  93.9611   0.1365 15.35380512    17

Acompanhe STARLINK-3999 em tempo real com AllMySat

Download on the App Store